EN

Hourly Weather Adoni

Today, 8 March, Monday

Time Temperature Precipitation Wind Pressure Humidity
00:00 +26°C° 0 mm 4 mps 718 mmHg 30%
01:00 +26°C° 0 mm 4 mps 717 mmHg 32%
02:00 +25°C° 0 mm 3 mps 717 mmHg 34%
03:00 +24°C° 0 mm 3 mps 717 mmHg 34%
04:00 +24°C° 0 mm 3 mps 717 mmHg 35%
05:00 +23°C° 0 mm 2 mps 717 mmHg 40%
06:00 +25°C° 0 mm 3 mps 718 mmHg 35%
07:00 +27°C° 0 mm 4 mps 719 mmHg 29%
08:00 +30°C° 0 mm 5 mps 720 mmHg 24%
09:00 +33°C° 0 mm 5 mps 720 mmHg 20%
10:00 +35°C° 0 mm 5 mps 720 mmHg 16%
11:00 +39°C° 0 mm 6 mps 720 mmHg 11%
12:00 +39°C° 0 mm 5 mps 719 mmHg 11%
13:00 +40°C° 0 mm 5 mps 718 mmHg 10%
14:00 +40°C° 0 mm 5 mps 717 mmHg 9%
15:00 +40°C° 0 mm 4 mps 717 mmHg 10%
16:00 +38°C° 0 mm 4 mps 717 mmHg 10%
17:00 +38°C° 0 mm 4 mps 717 mmHg 10%
18:00 +35°C° 0 mm 4 mps 717 mmHg 13%
19:00 +33°C° 0 mm 4 mps 717 mmHg 16%
20:00 +29°C° 0 mm 4 mps 718 mmHg 19%
21:00 +29°C° 0 mm 5 mps 718 mmHg 23%
22:00 +28°C° 0 mm 5 mps 718 mmHg 26%
23:00 +27°C° 0 mm 5 mps 718 mmHg 29%

Tomorrow, 9 March, Tuesday

Time Temperature Precipitation Wind Pressure Humidity
00:00 +27°C° 0 mm 5 mps 718 mmHg 30%
01:00 +26°C° 0 mm 5 mps 717 mmHg 32%
02:00 +25°C° 0 mm 5 mps 717 mmHg 33%
03:00 +23°C° 0 mm 4 mps 717 mmHg 33%
04:00 +24°C° 0 mm 3 mps 717 mmHg 34%
05:00 +22°C° 0 mm 3 mps 717 mmHg 35%
06:00 +24°C° 0 mm 3 mps 718 mmHg 32%
07:00 +26°C° 0 mm 2 mps 719 mmHg 29%
08:00 +28°C° 0 mm 2 mps 720 mmHg 27%
09:00 +30°C° 0 mm 2 mps 720 mmHg 22%
10:00 +32°C° 0 mm 2 mps 720 mmHg 18%
11:00 +36°C° 0 mm 2 mps 720 mmHg 14%
12:00 +37°C° 0 mm 3 mps 719 mmHg 13%
13:00 +38°C° 0 mm 3 mps 719 mmHg 12%
14:00 +40°C° 0 mm 4 mps 718 mmHg 12%
15:00 +38°C° 0 mm 4 mps 718 mmHg 12%
16:00 +38°C° 0 mm 4 mps 717 mmHg 13%
17:00 +37°C° 0 mm 4 mps 717 mmHg 13%
18:00 +35°C° 0 mm 4 mps 718 mmHg 16%
19:00 +33°C° 0 mm 3 mps 718 mmHg 19%
20:00 +29°C° 0 mm 2 mps 718 mmHg 21%
21:00 +29°C° 0 mm 3 mps 718 mmHg 27%
22:00 +28°C° 0 mm 4 mps 718 mmHg 33%
23:00 +27°C° 0 mm 5 mps 718 mmHg 38%

Day after tomorrow, 10 March, Wednesday

Time Temperature Precipitation Wind Pressure Humidity
00:00 +26°C° 0 mm 5 mps 718 mmHg 41%
01:00 +26°C° 0 mm 5 mps 717 mmHg 44%
02:00 +25°C° 0 mm 5 mps 717 mmHg 47%
03:00 +23°C° 0 mm 4 mps 717 mmHg 52%
04:00 +22°C° 0 mm 3 mps 717 mmHg 57%
05:00 +21°C° 0 mm 3 mps 717 mmHg 62%
06:00 +24°C° 0 mm 2 mps 718 mmHg 55%
07:00 +26°C° 0 mm 2 mps 719 mmHg 48%
08:00 +28°C° 0 mm 2 mps 720 mmHg 41%
09:00 +30°C° 0 mm 2 mps 720 mmHg 33%
10:00 +34°C° 0 mm 3 mps 720 mmHg 26%
11:00 +36°C° 0 mm 3 mps 720 mmHg 18%
12:00 +37°C° 0 mm 4 mps 719 mmHg 17%
13:00 +38°C° 0 mm 4 mps 718 mmHg 15%
14:00 +40°C° 0 mm 5 mps 717 mmHg 14%
15:00 +40°C° 0 mm 5 mps 717 mmHg 14%
16:00 +38°C° 0 mm 4 mps 717 mmHg 14%
17:00 +38°C° 0 mm 3 mps 716 mmHg 15%
18:00 +36°C° 0 mm 3 mps 717 mmHg 17%
19:00 +33°C° 0 mm 4 mps 717 mmHg 20%
20:00 +30°C° 0 mm 4 mps 717 mmHg 22%
21:00 +29°C° 0 mm 4 mps 718 mmHg 27%
22:00 +28°C° 0 mm 5 mps 718 mmHg 31%
23:00 +27°C° 0 mm 5 mps 718 mmHg 36%

11 March, Thursday

Time Temperature Precipitation Wind Pressure Humidity
00:00 +26°C° 0 mm 5 mps 718 mmHg 40%
01:00 +25°C° 0 mm 5 mps 717 mmHg 45%
02:00 +25°C° 0 mm 5 mps 717 mmHg 50%
03:00 +23°C° 0 mm 4 mps 717 mmHg 53%
04:00 +22°C° 0 mm 4 mps 717 mmHg 57%
05:00 +21°C° 0 mm 4 mps 717 mmHg 61%
06:00 +23°C° 0 mm 4 mps 718 mmHg 56%
07:00 +26°C° 0 mm 4 mps 719 mmHg 50%
08:00 +27°C° 0 mm 4 mps 719 mmHg 44%
09:00 +30°C° 0 mm 4 mps 720 mmHg 35%
10:00 +33°C° 0 mm 4 mps 720 mmHg 26%
11:00 +36°C° 0 mm 4 mps 720 mmHg 18%
12:00 +37°C° 0 mm 4 mps 719 mmHg 15%
13:00 +39°C° 0 mm 5 mps 718 mmHg 13%
14:00 +40°C° 0 mm 5 mps 717 mmHg 11%
15:00 +40°C° 0 mm 5 mps 717 mmHg 12%
16:00 +39°C° 0 mm 5 mps 717 mmHg 12%
17:00 +38°C° 0 mm 4 mps 716 mmHg 13%
18:00 +35°C° 0 mm 4 mps 717 mmHg 16%
19:00 +33°C° 0 mm 4 mps 717 mmHg 18%
20:00 +30°C° 0 mm 4 mps 718 mmHg 21%
21:00 +29°C° 0 mm 4 mps 718 mmHg 26%
22:00 +28°C° 0 mm 4 mps 718 mmHg 31%
23:00 +27°C° 0 mm 5 mps 719 mmHg 36%

12 March, Friday

Time Temperature Precipitation Wind Pressure Humidity
00:00 +26°C° 0 mm 5 mps 718 mmHg 45%
01:00 +25°C° 0 mm 5 mps 718 mmHg 53%
02:00 +25°C° 0 mm 5 mps 718 mmHg 62%
03:00 +23°C° 0 mm 5 mps 718 mmHg 64%
04:00 +22°C° 0 mm 4 mps 718 mmHg 66%
05:00 +22°C° 0 mm 3 mps 718 mmHg 68%
06:00 +24°C° 0 mm 3 mps 719 mmHg 60%
07:00 +26°C° 0 mm 3 mps 719 mmHg 52%
08:00 +28°C° 0 mm 3 mps 720 mmHg 44%
09:00 +31°C° 0 mm 3 mps 720 mmHg 35%
10:00 +34°C° 0 mm 3 mps 720 mmHg 26%
11:00 +36°C° 0 mm 3 mps 720 mmHg 17%
12:00 +37°C° 0 mm 4 mps 720 mmHg 15%
13:00 +39°C° 0 mm 5 mps 719 mmHg 14%
14:00 +40°C° 0 mm 6 mps 718 mmHg 12%
15:00 +40°C° 0 mm 6 mps 718 mmHg 12%
16:00 +39°C° 0 mm 5 mps 718 mmHg 12%
17:00 +38°C° 0 mm 4 mps 718 mmHg 12%
18:00 +35°C° 0 mm 4 mps 718 mmHg 15%
19:00 +33°C° 0 mm 5 mps 718 mmHg 18%
20:00 +30°C° 0 mm 5 mps 718 mmHg 21%
21:00 +29°C° 0 mm 5 mps 718 mmHg 24%
22:00 +28°C° 0 mm 5 mps 719 mmHg 28%
23:00 +26°C° 0 mm 4 mps 719 mmHg 32%

13 March, Saturday

Time Temperature Precipitation Wind Pressure Humidity
00:00 +26°C° 0 mm 5 mps 719 mmHg 40%
01:00 +25°C° 0 mm 5 mps 718 mmHg 48%
02:00 +23°C° 0 mm 5 mps 718 mmHg 56%
03:00 +22°C° 0 mm 4 mps 718 mmHg 61%
04:00 +21°C° 0 mm 4 mps 718 mmHg 65%
05:00 +21°C° 0 mm 3 mps 718 mmHg 69%
06:00 +22°C° 0 mm 3 mps 719 mmHg 63%
07:00 +25°C° 0 mm 3 mps 719 mmHg 57%
08:00 +27°C° 0 mm 3 mps 720 mmHg 50%
09:00 +30°C° 0 mm 4 mps 720 mmHg 40%
10:00 +33°C° 0 mm 4 mps 721 mmHg 29%
11:00 +36°C° 0 mm 4 mps 721 mmHg 18%
12:00 +37°C° 0 mm 5 mps 720 mmHg 16%
13:00 +39°C° 0 mm 6 mps 719 mmHg 14%
14:00 +41°C° 0 mm 6 mps 718 mmHg 12%
15:00 +40°C° 0 mm 6 mps 718 mmHg 12%
16:00 +39°C° 0 mm 5 mps 718 mmHg 12%
17:00 +38°C° 0 mm 4 mps 717 mmHg 12%
18:00 +35°C° 0 mm 4 mps 718 mmHg 15%
19:00 +33°C° 0 mm 4 mps 718 mmHg 17%
20:00 +29°C° 0 mm 3 mps 718 mmHg 20%
21:00 +29°C° 0 mm 3 mps 718 mmHg 22%
22:00 +28°C° 0 mm 3 mps 719 mmHg 25%
23:00 +27°C° 0 mm 3 mps 719 mmHg 28%
Show more

We Need Your Consent

Meteoprog and our Service Providers may store and access personal data such as cookies, device identifiers or other similar technologies on your device and process such data to personalise content and ads, as well as provide social media features and to analyse the traffic.

  • Store and/or access information on your device

    Cookies, device identifiers or other information can be stored or accessed on your device for the purposes indicated above.

  • Personalised ads and content, ad and content measurement, audience insights, and products development

    Ads and content can be personalised based on a profile. More data can be added to better personalise ads and content. Ad and content performance can be measured. Insights about the audience who saw the ads and content can be derived. Such data can be used to develop or improve user’s experience, systems and software.

By clicking ‘I Agree’ you will allow the use of indicated cookies, device identifiers, web beacons or other similar technologies. Your settings can be changed in the browser on your device.

For certain purposes, legitimate interests may be relied on, rather than consent. You can read more about this in our Privacy and Cookie Policy.